This is the latest recevied weather packets stored in our database for station/object KI4MRC. If no packets are shown the sender has not sent any weather packets the latest 10 day(s).
| Time | Temp. | Humidity | Pressure | Rain* | Wind** | Luminosity | Snow |
|---|---|---|---|---|---|---|---|
| 1777840470 | 23.33° C | 93% | 1014.9 hPa | 0 mm | - | 72 W/m² | - |
| 1777840167 | 23.33° C | 92% | 1014.8 hPa | 0 mm | - | 58 W/m² | - |
| 1777839866 | 23.33° C | 92% | 1014.8 hPa | 0 mm | - | 26 W/m² | - |
| 1777839564 | 23.33° C | 91% | 1014.7 hPa | 0 mm | - | 37 W/m² | - |
| 1777839261 | 23.89° C | 91% | 1014.9 hPa | 0 mm | - | 60 W/m² | - |
| 1777838958 | 23.89° C | 92% | 1014.7 hPa | 0 mm | - | 79 W/m² | - |
| 1777838654 | 23.89° C | 91% | 1014.7 hPa | 0 mm | - | 72 W/m² | - |
| 1777838351 | 23.89° C | 92% | 1014.7 hPa | 0 mm | - | 40 W/m² | - |
| 1777838048 | 24.44° C | 92% | 1014.7 hPa | 0 mm | - | 68 W/m² | - |
| 1777837745 | 24.44° C | 91% | 1014.6 hPa | 0 mm | - | 73 W/m² | - |
| 1777837441 | 24.44° C | 91% | 1014.5 hPa | 0 mm | - | 160 W/m² | - |
| 1777837137 | 24.44° C | 92% | 1014.5 hPa | 0 mm | - | 145 W/m² | - |
| 1777836833 | 24.44° C | 92% | 1014.4 hPa | 0 mm | - | 130 W/m² | - |
| 1777836529 | 24.44° C | 92% | 1014.4 hPa | 0 mm | - | 156 W/m² | - |
| 1777836225 | 24.44° C | 91% | 1014.5 hPa | 0 mm | - | 164 W/m² | - |
| 1777835921 | 24.44° C | 92% | 1014.7 hPa | 0 mm | - | 150 W/m² | - |
| 1777835618 | 24.44° C | 92% | 1014.7 hPa | 0 mm | - | 183 W/m² | - |
| 1777835315 | 23.89° C | 92% | 1015 hPa | 0 mm | - | 240 W/m² | - |
| 1777835012 | 23.89° C | 92% | 1015 hPa | 0.51 mm | - | 200 W/m² | - |
| 1777834709 | 24.44° C | 91% | 1014.9 hPa | 0.51 mm | - | 180 W/m² | - |
| 1777834406 | 24.44° C | 90% | 1015 hPa | 0 mm | - | 168 W/m² | - |
| 1777834105 | 24.44° C | 89% | 1015.3 hPa | 0 mm | - | 181 W/m² | - |
| 1777833802 | 24.44° C | 90% | 1015.1 hPa | 0 mm | - | 216 W/m² | - |
| 1777833497 | 24.44° C | 90% | 1015.4 hPa | 0 mm | - | 210 W/m² | - |
| 1777833195 | 24.44° C | 90% | 1015.4 hPa | 0 mm | - | 254 W/m² | - |
* Rain latest hour (hover to see other rain measurements)
** Current wind speed in m/s (hover to see current wind gust speed)